Regional Weather Roundup
Issued by NWS Northern Indiana

Home | Current Version | Previous Version | Graphics & Text | Print | Product List | Glossary On
Versions: 1 2 3 4 5 6 7 8 9 10 11 12 13 14 15 16 17 18 19 20 21 22 23 24 25 26 27 28 29 30 31 32 33 34 35 36 37 38 39 40 41 42 43 44 45 46 47 48 49 50
000
ASUS43 KIWX 051110
RWRIWX

KIWX WEATHER ROUNDUP
NATIONAL WEATHER SERVICE NORTHERN INDIANA
700 AM EDT SUN JUL 05 2015

NOTE: "FAIR" INDICATES FEW OR NO CLOUDS BELOW 12,000 FEET WITH NO
SIGNIFICANT WEATHER AND/OR OBSTRUCTIONS TO VISIBILITY.

* THESE STATIONS ARE NOT UNDER NWS QUALITY CONTROL. THEY ALSO MAY NOT
  REPORT WEATHER SUCH AS PRECIPITATION OR FOG.

INZ001>027-051200-
NORTHERN INDIANA

CITY           SKY/WX    TMP DP  RH WIND       PRES   REMARKS
GARY*          PTCLDY   N/A N/A N/A CALM      30.08S FOG
VALPARAISO     FOG       58  57  97 CALM      30.09S VSB 1/2
MICHIGAN CITY* FOG       57  57 100 CALM      30.08F VSB 1/2
LAPORTE*       FOG      N/A N/A N/A CALM      30.09F VSB<1/4
KNOX*          CLEAR     55  55 100 SE3       30.08F
SOUTH BEND     CLEAR     60  56  86 CALM      30.09F FOG
GOSHEN         PTCLDY    58  56  93 SE3       30.10S FOG
MONTICELLO*    FOG       61  61 100 CALM      30.08S VSB 1/2
LOGANSPORT*    FOG       59  55  88 CALM      30.10S VSB 1
ROCHESTER*       N/A     61  61 100 CALM      30.11R FOG
WARSAW*        FOG       55  55 100 CALM      30.11R VSB<1/4
ANGOLA*          N/A     55  55 100 CALM      30.12R
FORT WAYNE     MOCLDY    59  57  93 CALM      30.12R FOG
HUNTINGTON*    PTCLDY    59  58  97 CALM      30.11S FOG
PERU/GRISSOM   CLEAR     59  58  96 NE3       30.09S
MARION*          N/A     58  57  98 CALM      30.12R FOG

$$
INZ028>050-051200-
CENTRAL INDIANA

CITY           SKY/WX    TMP DP  RH WIND       PRES   REMARKS
LAFAYETTE      FOG       59  58  96 CALM      30.09R VSB 1
KOKOMO*        CLEAR     59  55  88 CALM      30.10R
MUNCIE*        MOCLDY    62  59  90 CALM      30.11R FOG
INDIANAPOLIS   MOCLDY    65  59  81 CALM      30.09R HAZE

$$
MIZ043>046-050>051-056>058-064>065-071>073-077>080-051200-
SOUTHWEST LOWER MICHIGAN

CITY           SKY/WX    TMP DP  RH WIND       PRES   REMARKS
BATTLE CREEK   CLEAR     60  57  89 CALM      30.11S FOG
BENTON HARBOR  CLEAR     54  52  93 CALM      30.07F FOG
COLDWATER*       N/A     56  55  99 CALM      30.11S FOG
HILLSDALE*     CLEAR     56  56 100 CALM      30.13R FOG
HOLLAND        CLEAR     58  56  93 E3        30.09R FOG
GRAND RAPIDS   CLOUDY    56  54  93 CALM      30.09S FOG
KALAMAZOO      CLEAR     57  55  93 CALM      30.11S FOG
STURGIS*       CLEAR     57  57 100 CALM      30.10F FOG
THREE RIVERS*    N/A     58  56  96 CALM      30.11S FOG

$$
OHZ001>008-015>018-024>025-051200-
NORTHWEST OHIO

CITY           SKY/WX    TMP DP  RH WIND       PRES   REMARKS
DEFIANCE       CLEAR     59  57  93 CALM      30.12R FOG
FINDLAY        PTCLDY    60  57  89 CALM      30.11R
TOLEDO EXPRESS CLEAR     55  54  96 CALM      30.12R
TOLEDO METCALF CLEAR     59  54  83 CALM      30.13R
LIMA           MOCLDY    59  57  93 CALM      30.12R FOG

$$
AND FOR LAKE MICHIGAN COASTAL AND OPEN LAKE BUOY OBSERVATIONS

STATION/POSITION TEMP    WIND        PRES    VSBY  WAVE
                 AIR SEA DIR/SP/G                  HT/PER
                 (F)     (DEG/KT/KT) (MB)    (MI)  (FT/S)
CALUMET HARBOR    66     210/  3/  3   N/A
MICHIGAN CITY     68     150/  7/  9   N/A
BURNS HARBOR      66     190/  7/  8 1019.0R
SAINT JOSEPH      64     140/  3/  5   N/A
4 MI NW BRIDGMAN  65 63                N/A           0
MICHIGAN CITY     65 64  200/  4/  6   N/A           0

$$
&&


USA.gov is the U.S. government's official web portal to all federal, state and local government web resources and services.